This demonstration page uses our WeatherBlox Daily Observations layout. Learn more.

40.92945, -100.16068

Hourly Observations for July 21, 2015

Temp ( °F °C ) Dew Point ( °F °C ) Humidity (%) Winds ( mph kmh ) Pressure ( in mb ) Visibility ( mi km ) Precip ( " mm )
12:15 am 00:15 Clear 65 18.5 59 15.1 81 81 Calm 29.97 1015 10 16.0934 N/A
12:35 am 00:35 Clear 64 17.5 58 14.6 83 83 Calm 29.97 1015 10 16.0934 N/A
12:55 am 00:55 Clear 63 17 58 14.7 86 86 Calm 29.97 1015 10 16.0934 N/A
1:15 am 01:15 Clear 62 16.5 58 14.7 89 89 Calm 29.97 1015 10 16.0934 N/A
1:35 am 01:35 Clear 62 16.4 58 14.7 90 90 Calm 30 1016 10 16.0934 N/A
1:55 am 01:55 Clear 61 16 58 14.5 91 91 Calm 30 1016 10 16.0934 N/A
2:15 am 02:15 Clear 60 15.5 58 14.3 93 93 Calm 30 1016 10 16.0934 N/A
2:35 am 02:35 Clear 59 14.8 57 13.7 93 93 Calm 30 1016 10 16.0934 N/A
2:55 am 02:55 Clear 59 14.8 57 13.8 94 94 Calm 30 1016 10 16.0934 N/A
3:15 am 03:15 Clear 58 14.6 56 13.6 94 94 Calm 30 1016 10 16.0934 N/A
3:35 am 03:35 Clear 58 14.3 56 13.5 95 95 Calm 30 1016 10 16.0934 N/A
3:55 am 03:55 Clear 57 14.1 56 13.2 94 94 NNW 3 6 30 1016 10 16.0934 N/A
4:15 am 04:15 Clear 58 14.3 56 13.5 95 95 Calm 30 1016 10 16.0934 N/A
4:35 am 04:35 Clear 58 14.3 56 13.4 94 94 Calm 30 1016 10 16.0934 N/A
4:55 am 04:55 Clear 56 13.5 55 12.6 94 94 WNW 3 6 30 1016 10 16.0934 N/A
5:15 am 05:15 Clear 56 13.5 55 12.6 94 94 NW 3 6 30 1016 10 16.0934 N/A
5:35 am 05:35 Clear 57 13.7 55 12.9 95 95 Calm 30 1016 10 16.0934 N/A
5:55 am 05:55 Clear 56 13.5 55 12.7 95 95 Calm 30 1016 10 16.0934 N/A
6:15 am 06:15 Clear 56 13.3 55 12.6 96 96 Calm 30.03 1017 10 16.0934 N/A
6:35 am 06:35 Sunny 56 13.4 55 12.7 96 96 ENE 5 7 30.03 1017 10 16.0934 N/A
6:55 am 06:55 Sunny 55 13 54 12.2 95 95 E 5 7 30.03 1017 10 16.0934 N/A
7:15 am 07:15 Sunny 57 14.1 56 13.4 96 96 Calm 30 1016 10 16.0934 N/A
7:35 am 07:35 Sunny 60 15.3 58 14.6 96 96 Calm 30 1016 10 16.0934 N/A
7:55 am 07:55 Sunny 62 16.5 60 15.5 94 94 Calm 29.97 1015 7 11.26538 N/A
8:15 am 08:15 Sunny 64 18 61 16.2 89 89 Calm 29.97 1015 10 16.0934 N/A
8:35 am 08:35 Sunny 67 19.7 61 16 79 79 ESE 5 7 29.97 1015 10 16.0934 N/A
8:55 am 08:55 Sunny 69 20.7 61 16 75 75 ESE 8 13 29.94 1014 10 16.0934 N/A
9:15 am 09:15 Sunny 70 21.2 61 16.1 73 73 SE 7 11 29.94 1014 10 16.0934 N/A
9:35 am 09:35 Sunny 71 21.8 62 16.7 73 73 SSE 7 11 29.97 1015 10 16.0934 N/A
9:55 am 09:55 Sunny 72 22.2 62 16.7 71 71 SSE 9 15 29.97 1015 10 16.0934 N/A
10:15 am 10:15 Sunny 74 23.2 61 16.2 65 65 SSE 12 19 29.97 1015 10 16.0934 N/A
10:35 am 10:35 Sunny 74 23.6 61 16.2 63 63 SSE 12 19 29.91 1013 10 16.0934 N/A
10:55 am 10:55 Sunny 76 24.3 62 16.4 61 61 SSE 13 20 29.91 1013 10 16.0934 N/A
11:15 am 11:15 Sunny 76 24.3 61 16.2 61 61 S 12 19 29.91 1013 10 16.0934 N/A
11:35 am 11:35 Sunny 77 25 61 16 57 57 SSE 10 17 29.91 1013 10 16.0934 N/A
11:55 am 11:55 Sunny 77 25.2 61 16.1 57 57 SSE 9 15 29.91 1013 10 16.0934 N/A
12:15 pm 12:15 Sunny 79 26 60 15.8 53 53 SSE 9 15 29.91 1013 10 16.0934 N/A
12:35 pm 12:35 Sunny 79 26.1 60 15.8 53 53 SSE 10 17 29.91 1013 10 16.0934 N/A
12:55 pm 12:55 Sunny 80 26.4 60 15.8 52 52 SSE 9 15 29.91 1013 10 16.0934 N/A
1:15 pm 13:15 Sunny 81 27.1 61 16.1 51 51 S 10 17 29.91 1013 10 16.0934 N/A
1:35 pm 13:35 Sunny 81 27.2 60 15.7 49 49 SSE 8 13 29.91 1013 10 16.0934 N/A
1:55 pm 13:55 Sunny 81 27.1 61 16.1 51 51 SSE 10 17 29.91 1013 10 16.0934 N/A
2:15 pm 14:15 Sunny 82 27.6 60 15.8 49 49 SSE 7 11 29.88 1012 10 16.0934 N/A
2:35 pm 14:35 Partly Cloudy 81 27.3 61 16.2 51 51 SSE 10 17 29.91 1013 10 16.0934 N/A
2:55 pm 14:55 Partly Cloudy 83 28.2 61 16 48 48 S 10 17 29.85 1011 10 16.0934 N/A
3:15 pm 15:15 Sunny 83 28.4 61 16 47 47 SE 6 9 29.85 1011 10 16.0934 N/A
3:35 pm 15:35 Sunny 82 28 60 15.8 47 47 ESE 6 9 29.85 1011 10 16.0934 N/A
3:55 pm 15:55 Sunny 83 28.3 60 15.4 45 45 SE 7 11 29.85 1011 10 16.0934 N/A
4:15 pm 16:15 Sunny 84 28.7 61 16.3 47 47 SE 8 13 29.85 1011 10 16.0934 N/A
4:35 pm 16:35 Sunny 84 28.7 61 16.3 47 47 SE 6 9 29.85 1011 10 16.0934 N/A
4:55 pm 16:55 Sunny 83 28.1 62 16.7 50 50 S 6 9 29.83 1010 10 16.0934 N/A
5:15 pm 17:15 Sunny 82 27.5 61 16.2 50 50 SSE 10 17 29.83 1010 10 16.0934 N/A
5:35 pm 17:35 Sunny 82 27.5 62 16.7 52 52 SSE 9 15 29.83 1010 10 16.0934 N/A
5:55 pm 17:55 Sunny 83 28.4 62 16.7 49 49 SSE 9 15 29.83 1010 10 16.0934 N/A
6:15 pm 18:15 Sunny 82 28 62 16.5 50 50 SE 13 20 29.83 1010 10 16.0934 N/A
6:35 pm 18:35 Sunny 81 27.1 60 15.7 50 50 SE 10 17 29.83 1010 10 16.0934 N/A
6:55 pm 18:55 Sunny 82 27.6 61 16.3 50 50 SE 13 20 29.83 1010 10 16.0934 N/A
7:15 pm 19:15 Sunny 80 26.5 62 16.4 54 54 SE 9 15 29.83 1010 10 16.0934 N/A
7:35 pm 19:35 Sunny 80 26.4 62 16.7 55 55 SSE 9 15 29.85 1011 10 16.0934 N/A
7:55 pm 19:55 Sunny 79 26 61 16.3 55 55 SE 12 19 29.85 1011 10 16.0934 N/A
8:15 pm 20:15 Sunny 78 25.4 62 16.7 59 59 SE 9 15 29.85 1011 10 16.0934 N/A
8:35 pm 20:35 Sunny 77 24.9 62 16.8 61 61 SE 7 11 29.85 1011 10 16.0934 N/A
8:55 pm 20:55 Sunny 76 24.6 62 16.5 61 61 SE 8 13 29.85 1011 10 16.0934 N/A
9:15 pm 21:15 Clear 75 24 62 16.6 63 63 SE 7 11 29.85 1011 10 16.0934 N/A
9:35 pm 21:35 Clear 74 23.5 62 16.6 65 65 SE 7 11 29.85 1011 10 16.0934 N/A
9:55 pm 21:55 Clear 74 23.2 62 16.6 67 67 SE 8 13 29.88 1012 10 16.0934 N/A
10:15 pm 22:15 Clear 73 23 62 16.6 67 67 SE 9 15 29.88 1012 10 16.0934 N/A
10:35 pm 22:35 Clear 72 22.4 62 16.6 70 70 SE 8 13 29.88 1012 10 16.0934 N/A
10:55 pm 22:55 Clear 71 21.7 62 16.7 73 73 SE 8 13 29.88 1012 10 16.0934 N/A
11:15 pm 23:15 Clear 71 21.5 62 16.7 74 74 SE 8 13 29.88 1012 10 16.0934 N/A
11:35 pm 23:35 Clear 70 21.2 62 16.7 76 76 SE 7 11 29.88 1012 10 16.0934 N/A
11:55 pm 23:55 Clear 70 20.9 62 16.5 76 76 SSE 8 13 29.88 1012 10 16.0934 N/A

Powered by AerisWeather